Regional Weather Roundup
Issued by NWS

Home | Current Version | Previous Version | Text Only | Print | Product List | Glossary On
Versions: 1 2 3 4 5 6 7 8 9 10 11 12 13 14 15 16 17 18 19 20 21 22 23 24 25 26 27 28 29 30 31 32 33 34 35 36 37 38 39 40 41 42 43 44 45 46 47 48 49 50
000
ASHW40 PHFO 250812
RWRHI

WEATHER ROUNDUP FOR HAWAII
NATIONAL WEATHER SERVICE HONOLULU HI
1000 PM HST FRI MAR 24 2017

THIS IS AN AUTOMATED REPORT THAT HAS NOT BEEN QUALITY CONTROLLED.

NOTE..."FAIR" INDICATES FEW OR NO CLOUDS BELOW 12,000 FEET WITH NO
SIGNIFICANT WEATHER AND/OR OBSTRUCTIONS TO VISIBILITY.

* - THESE SITES REPORT LIMITED FIELDS

HIZ001>004-250900-
KAUAI-NIIHAU-

CITY           SKY/WX    TMP DP  RH WIND       PRES   REMARKS
LIHUE APT      CLOUDY    75  69  81 NE9       30.24R
PORT ALLEN*      N/A     73 N/A N/A E8G14       N/A
POIPU*           N/A     75 N/A N/A NE6         N/A
PRINCEVILLE*     N/A     72 N/A N/A SE5         N/A
KOKOLE POINT*  NOT AVBL
MOLOAA DAIRY*    N/A     73  68  83 E5G12       N/A
WAIMEA HTS*    NOT AVBL
PUU OPAE*      NOT AVBL
PUU LUA*       NOT AVBL
MAKAHA RIDGE*  NOT AVBL
$$

HIZ005>011-250900-
OAHU-

CITY           SKY/WX    TMP DP  RH WIND       PRES   REMARKS
HONOLULU       PTCLDY    76  67  73 E10       30.21R
KALAELOA       CLEAR     75  67  76 NE5       30.22R
KANEOHE MCB    NOT AVBL
WHEELER FIELD  PTCLDY    68  66  93 CALM      30.22R
BELLOWS*       NOT AVBL
KAHUKU*        NOT AVBL
WHEELER*       NOT AVBL
WAIANAE HARBOR NOT AVBL
DILLINGHAM*      N/A     82  81  94 CALM        N/A  HX  95
KAHUKU TRN*      N/A     72  70  94 NW3G10      N/A
KAWAILOA*        N/A     70  64  83 E6G12       N/A
KII*             N/A     75  70  83 E12         N/A
MAKUA RANGE*     N/A     70  68  94 NW5         N/A
OAHU FOREST NW NOT AVBL
SCHOFIELD BRK*   N/A     81  79  94 MISG        N/A
SCHOFIELD S*   NOT AVBL
WAIANAE VLY*   NOT AVBL
KUAOKALA*      NOT AVBL
HONOULIUULI*   NOT AVBL
MOKUOLOE IS*   NOT AVBL
PALEHUA*       NOT AVBL
WAIAWA PHB*    NOT AVBL
$$

HIZ012>013-250900-
MOLOKAI-

CITY           SKY/WX    TMP DP  RH WIND       PRES   REMARKS
MOLOKAI AIRPT  CLEAR     72  66  81 N5        30.23R
KALAUPAPA      NOT AVBL
MAKAPULAPAI*   NOT AVBL
MOLOKAI 1*     NOT AVBL
PUU ALII*      NOT AVBL
$$

HIZ016-250900-
KAHOOLAWE-

CITY           SKY/WX    TMP DP  RH WIND       PRES   REMARKS
KAHOOLAWE*     NOT AVBL
HAKIOAWA*      NOT AVBL
HONOKANAIA*      N/A     75  66  73 NE10G17   30.14R
KANELOA*         N/A     73  68  83 E12G23    30.27R
KEALIALALO*    NOT AVBL
LUA MAKIKA*    NOT AVBL
$$

HIZ014>015-250900-
LANAI-

CITY           SKY/WX    TMP DP  RH WIND       PRES   REMARKS
LANAI CITY     FAIR      69  64  84 E8        30.26R
LANAI 1*       NOT AVBL
$$

HIZ017>028-250900-
MAUI-

CITY           SKY/WX    TMP DP  RH WIND       PRES   REMARKS
KAHULUI        CLEAR     72  63  73 NE5       30.21R
KAPALUA-W MAUI NOT AVBL
HANA AIRPORT   PTCLDY    70  66  88 CALM      30.27R
HANA*            N/A     73 N/A N/A SE3         N/A
HALEAKALA SUMM   N/A     41  18  38 SE25G41     N/A
MAALAEA BAY*   NOT AVBL
HALEAKALA*     NOT AVBL
KAUPO GAP*     NOT AVBL
KULA 1*          N/A    N/A N/A N/A NE8G18      N/A
$$

HIZ023>026-250900-
BIG ISLAND OF HAWAII COAST AND LOWER SLOPES-

CITY           SKY/WX    TMP DP  RH WIND       PRES   REMARKS
KAILUA KONA    MOCLDY    79  69  71 SE8       30.17R
HILO           MOCLDY    71  68  90 S5        30.23R
HONOKAA*         N/A     66 N/A N/A VRB1        N/A
KAWAIHAE MWT*    N/A     79 N/A N/A E3          N/A
KAWAIHAE*      NOT AVBL
SOUTH POINT*     N/A     70 N/A N/A VRB15G22    N/A
UPOLU AIRPORT* NOT AVBL
KAMUELA*       PTSUNNY   59  57  94 NE8       30.31R
HAKALAU*         N/A    N/A N/A N/A SW6G16      N/A
KALOKO-HONOKO* NOT AVBL
PALI 2*          N/A     63  52  67 S1G12       N/A
KEALAKOMO*       N/A     73  66  78 NE9         N/A
KAUPULEHU*     NOT AVBL
KAPAPALA*        N/A     64  63  96 NW5         N/A
LOWER KAHUKU*  NOT AVBL
PUHE CS*       NOT AVBL
PUHO CS*       NOT AVBL
PTA KEAMUKU*     N/A     63  59  88 CALM        N/A
WAIKOLOA*      NOT AVBL
$$

HIZ027>028-250900-
BIG ISLAND OF HAWAII INTERIOR AND SUMMMITS-

CITY           SKY/WX    TMP DP  RH WIND       PRES   REMARKS
BRADSHAW FIELD PTCLDY    59  28  30 CALM      30.50R
MK VISITOR CEN   N/A     48   5  17 E13         N/A
MAUNA KEA*       N/A     30 -11  16 NE25        N/A  WCI  16
MAUNA LOA*     NOT AVBL
MAUNA LOA 1*   NOT AVBL
PTA KIPUKA*      N/A     50  50 100 E3          N/A
PTA RANGE 17*    N/A    N/A N/A N/A E9G20       N/A
PTA WEST*        N/A     55  54  94 SE7         N/A
NENE CABIN*    NOT AVBL
AHUMOA*        NOT AVBL
PTA PORTABLE*  NOT AVBL
PUU MALI*        N/A     61   7  11 SE6G26      N/A
$$

HIC003-250900-
NORTHWEST ISLANDS-

CITY           SKY/WX    TMP DP  RH WIND       PRES   REMARKS
MIDWAY ISLAND  CLOUDY    64  57  77 CALM      30.16R
MIDWAY NOS*    NOT AVBL
FRENCH FRIGATE NOT AVBL
$$

PHZ110>124-180-250900-
BUOY REPORTS

STATION/POSITION TIME  TEMP    WIND        PRES    WAVE   SWELL
                       AIR SEA DIR/SP/G            HT/PER HT/DIR
                 (UTC) (F)     (DEG/KT/KT) (MB)    (FT/S) (FT/D)
BUOY 51001       0750   75 76  130/  4/  6 1023.6R   4/11   3/300
BUOY 51101       0750   76 77  110/  6/  6 1024.2R   5/11   5/300
BUOY 51100       NOT AVBL
BUOY 51002       0750   78 78   70/ 19/ 23 1020.8R   7/ 8   5/110
BUOY 51003       0650   77 78   70/ 16/ 19 1021.1    6/12   5/280
BUOY 51004       0650      77   60/ 17/ 19 1021.3    7/ 8   3/ 10
BARBERS PT BUOY  NOT AVBL
WAIMEA BAY BUOY  0702      76                N/A     4/13   3/330
KAILUA BAY BUOY  0734      76                N/A     5/ 8   2/350
LANAI BUOY       0745      78                N/A     4/13   2/260
BARBERS PT 2     NOT AVBL
PAUWELA MAUI     0739      77                N/A     5/13   3/330
HILO             0742      78                N/A     7/ 8   3/350
KANEOHE BAY BUOY 0725      75                N/A     4/12   2/340
HANALEI KAUAI    0752      78                N/A     4/12   3/330
KAHULUI HARBOR   0742   75 78   20/  4/  7 1023.0R
HONOLULU HARBOR  0748   77 78   CALM  /  1 1023.7R
KILO NALU        NOT AVBL
HILO HARBOR      0742   73 76  210/  2/  3 1023.4R
MOKUOLOE         0736   76 79  110/ 10/ 12 1023.2R
NAWILIWILI       0748   76      40/  5/  8 1023.2R
WHOTS BUOY       NOT AVBL
BUOY 51028       NOT AVBL
$$

......................KEY........................................
  SKY/WX - SKY CONDITIONS/PRESENT WEATHER
  TMP    - TEMPERATURE IN FAHRENHEIT
  DWPT   - DEWPOINT IN FAHRENHEIT
  RH     - RELATIVE HUMIDITY IN PERCENT
  WIND   - DIRECTION AND SPEED /MPH FOR ISLANDS...KTS FOR BUOYS/
  PRES   - MEAN SEA LEVEL PRESSURE IN INCHES OF HG
  VSB    - VISIBILITY IN MILES
  HX     - HEAT INDEX
  WCI    - WIND CHILL INDEX
  VRB    - VARIABLE WIND DIRECTION
  N/A    - NOT AVAILABLE




USA.gov is the U.S. government's official web portal to all federal, state and local government web resources and services.